User: anonymous   Login
Location: Bijele Vode
(45.2833°N, 16.2000°E)
Time: 15:44:31
(UTC+00:00)
Language:

ITUPSAT 1 - Orbit

View from above orbital plane
View from above orbital plane
View from above satellite
View from above satellite

Ground track
Ground track

The orbit data is extracted from the following two-line orbital elements,

1 35935U 09051E   21331.84028627  .00000199  00000-0  56463-4 0  9994
2 35935  98.5921 178.7587 0007508 328.4171  31.6574 14.55795205646544
Epoch (UTC): 27 November 2021 20:10:00
Eccentricity: 0.0007508
inclination: 98.5921°
perigee height: 701 km
apogee height: 712 km
right ascension of ascending node: 178.7587°
argument of perigee: 328.4171°
revolutions per day: 14.55795205
mean anomaly at epoch: 31.6574°
orbit number at epoch: 64654

The dashed part of the orbit path shows where the satellite is in the earth's shadow,  

DLR